Weather History for KCOE - March, 2013

Change the Weather History Date:

Wednesday, March 20, 2013

  Actual Average Record
Temperature  
Mean Temperature 42 °F -  
Max Temperature 48 °F 47 °F 66 °F (1999)
Min Temperature 35 °F 29 °F 19 °F (2002)
Degree Days  
Heating Degree Days 24    
Moisture  
Dew Point 35 °F    
Average Humidity 82    
Maximum Humidity 93    
Minimum Humidity 61    
Precipitation  
Precipitation 0.40 in - - ()
Sea Level Pressure  
Sea Level Pressure 29.64 in    
Wind  
Wind Speed 10 mph (South)    
Max Wind Speed 29 mph    
Max Gust Speed 39 mph    
Visibility 10 miles    
Events Thunderstorm    
Averages and records for this station are not official NWS values.
T = Trace of Precipitation, MM = Missing Value Source: NWS Daily Summary

Daily Weather History Graph

Daily Weather History Graph

Search for Another Location

Airport or City:

Trip Planner

Search our weather history database for the weather conditions in past years. The results will help you decide how hot, cold, wet, or windy it might be!

Date:

Astronomy

Mar. 20, 2013 Rise Set
Actual Time 6:49 AM PDT 7:00 PM PDT
Civil Twilight 6:18 AM PDT 7:31 PM PDT
Nautical Twilight 5:42 AM PDT 8:07 PM PDT
Astronomical Twilight 5:05 AM PDT 8:45 PM PDT
Moon 12:16 PM PDT (3/20) 2:56 AM PDT (3/20)
Length of Visible Light 13h 12m
Length of Day
12h 11m
First Quarter, 60% of the Moon is Illuminated
Mar 20
First Quarter
Mar 27
Full
Apr 2
Last Quarter
Apr 10
New
Apr 18
First Quarter

Hourly Weather History & Observations

Time (PDT) Temp. Windchill Dew Point Humidity Pressure Visibility Wind Dir Wind Speed Gust Speed Precip Events Conditions
12:15 AM 37.4 °F 30.8 °F 26.6 °F 65% 29.83 in 10.0 mi NNE 9.2 mph - N/A   Overcast
12:35 AM 37.4 °F 34.9 °F 26.6 °F 65% 29.83 in 10.0 mi North 3.5 mph - N/A   Overcast
12:55 AM 37.4 °F 34.9 °F 28.4 °F 70% 29.82 in 10.0 mi ENE 3.5 mph - N/A   Overcast
1:15 AM 37.4 °F 32.1 °F 30.2 °F 75% 29.81 in 10.0 mi ENE 6.9 mph - N/A   Overcast
1:35 AM 37.4 °F 33.8 °F 32.0 °F 81% 29.80 in 9.0 mi SE 4.6 mph - 0.01 in   Overcast
1:55 AM 39.2 °F 34.2 °F 35.6 °F 87% 29.79 in 10.0 mi SE 6.9 mph - 0.03 in   Overcast
2:15 AM 39.2 °F 34.2 °F 35.6 °F 87% 29.78 in 10.0 mi SE 6.9 mph - 0.01 in   Overcast
2:35 AM 39.2 °F 35.9 °F 35.6 °F 87% 29.76 in 10.0 mi ESE 4.6 mph - 0.01 in   Overcast
2:55 AM 37.4 °F 31.4 °F 33.8 °F 87% 29.75 in 10.0 mi NNE 8.1 mph - 0.01 in   Overcast
3:15 AM 35.6 °F 28.6 °F 32.0 °F 87% 29.75 in 10.0 mi North 9.2 mph - N/A   Overcast
3:35 AM 35.6 °F 28.6 °F 33.8 °F 93% 29.74 in 8.0 mi North 9.2 mph - N/A   Overcast
3:55 AM 35.6 °F 29.9 °F 33.8 °F 93% 29.73 in 10.0 mi North 6.9 mph - N/A   Overcast
4:15 AM 35.6 °F 29.9 °F 33.8 °F 93% 29.72 in 10.0 mi North 6.9 mph - N/A   Overcast
4:35 AM 35.6 °F 32.8 °F 33.8 °F 93% 29.71 in 10.0 mi NE 3.5 mph - 0.01 in   Overcast
4:55 AM 35.6 °F 29.2 °F 33.8 °F 93% 29.71 in 9.0 mi North 8.1 mph - 0.01 in   Overcast
5:15 AM 35.6 °F 29.2 °F 33.8 °F 93% 29.70 in 7.0 mi NNE 8.1 mph - 0.01 in   Overcast
5:35 AM 35.6 °F 29.9 °F 33.8 °F 93% 29.70 in 9.0 mi NE 6.9 mph - 0.02 in   Overcast
5:55 AM 35.6 °F 31.7 °F 33.8 °F 93% 29.68 in 9.0 mi North 4.6 mph - 0.03 in   Overcast
6:15 AM 37.4 °F 33.8 °F 35.6 °F 93% 29.67 in 10.0 mi NNE 4.6 mph - N/A   Overcast
6:35 AM 37.4 °F - 33.8 °F 87% 29.67 in 9.0 mi Calm Calm - N/A   Overcast
6:55 AM 37.4 °F 33.8 °F 33.8 °F 87% 29.66 in 8.0 mi South 4.6 mph - 0.01 in   Overcast
7:15 AM 41.0 °F 36.4 °F 37.4 °F 87% 29.65 in 10.0 mi SSE 6.9 mph - N/A   Overcast
7:35 AM 41.0 °F 34.3 °F 37.4 °F 87% 29.64 in 10.0 mi South 11.5 mph 16.1 mph N/A   Overcast
7:55 AM 39.2 °F 31.6 °F 37.4 °F 93% 29.63 in 10.0 mi South 12.7 mph 16.1 mph N/A   Overcast
8:15 AM 39.2 °F 32.0 °F 37.4 °F 93% 29.63 in 10.0 mi South 11.5 mph - N/A   Overcast
8:35 AM 41.0 °F 33.9 °F 37.4 °F 87% 29.62 in 10.0 mi South 12.7 mph - N/A   Mostly Cloudy
8:55 AM 41.0 °F 34.7 °F 37.4 °F 87% 29.61 in 10.0 mi South 10.4 mph - N/A   Overcast
9:15 AM 41.0 °F 34.7 °F 37.4 °F 87% 29.61 in 10.0 mi South 10.4 mph - N/A   Overcast
9:35 AM 42.8 °F 37.5 °F 39.2 °F 87% 29.61 in 10.0 mi SSW 9.2 mph - N/A   Mostly Cloudy
9:55 AM 42.8 °F 37.0 °F 39.2 °F 87% 29.60 in 10.0 mi South 10.4 mph - N/A   Mostly Cloudy
10:15 AM 42.8 °F 35.8 °F 39.2 °F 87% 29.59 in 10.0 mi South 13.8 mph - N/A   Overcast
10:35 AM 42.8 °F 35.4 °F 39.2 °F 87% 29.59 in 10.0 mi SSE 15.0 mph - 0.01 in   Overcast
10:55 AM 42.8 °F 37.0 °F 39.2 °F 87% 29.59 in 10.0 mi South 10.4 mph - 0.03 in   Overcast
11:15 AM 42.8 °F 37.5 °F 41.0 °F 93% 29.58 in 10.0 mi SSE 9.2 mph - 0.03 in   Mostly Cloudy
11:35 AM 42.8 °F 38.0 °F 41.0 °F 93% 29.56 in 10.0 mi SSE 8.1 mph - 0.05 in   Overcast
11:55 AM 44.6 °F 39.7 °F 42.8 °F 93% 29.56 in 10.0 mi SSE 9.2 mph - 0.05 in   Overcast
12:15 PM 44.6 °F 39.7 °F 42.8 °F 93% 29.55 in 10.0 mi South 9.2 mph - N/A   Overcast
12:35 PM 46.4 °F 40.4 °F 42.8 °F 87% 29.55 in 10.0 mi South 13.8 mph - N/A   Overcast
12:55 PM 46.4 °F 41.1 °F 42.8 °F 87% 29.53 in 10.0 mi South 11.5 mph 17.3 mph N/A   Overcast
1:15 PM 48.2 °F - 44.6 °F 87% 29.50 in 10.0 mi South 13.8 mph 20.7 mph N/A   Overcast
1:35 PM 48.2 °F - 44.6 °F 87% 29.48 in 10.0 mi SSE 17.3 mph 25.3 mph N/A   Overcast
1:55 PM 39.2 °F 29.8 °F 35.6 °F 87% 29.53 in 2.0 mi WSW 18.4 mph 38.0 mph 0.16 in Thunderstorm Thunderstorm
2:15 PM 39.2 °F 35.9 °F 37.4 °F 93% 29.53 in 10.0 mi WSW 4.6 mph - 0.05 in Thunderstorm Overcast
2:35 PM 39.2 °F 35.9 °F 37.4 °F 93% 29.53 in 10.0 mi East 4.6 mph - 0.06 in   Overcast
2:55 PM 39.2 °F 37.0 °F 35.6 °F 87% 29.53 in 10.0 mi ESE 3.5 mph - 0.06 in   Overcast
3:15 PM 42.8 °F 37.5 °F 41.0 °F 93% 29.53 in 10.0 mi South 9.2 mph - N/A   Overcast
3:35 PM 44.6 °F 37.2 °F 41.0 °F 87% 29.54 in 10.0 mi SW 17.3 mph 21.9 mph N/A   Overcast
3:55 PM 44.6 °F 36.6 °F 39.2 °F 81% 29.55 in 10.0 mi SW 19.6 mph 27.6 mph N/A   Overcast
4:15 PM 44.6 °F 36.9 °F 39.2 °F 81% 29.55 in 10.0 mi SSW 18.4 mph 23.0 mph N/A   Overcast
4:35 PM 44.6 °F 36.4 °F 39.2 °F 81% 29.55 in 10.0 mi SSW 20.7 mph - N/A   Overcast
4:55 PM 44.6 °F 36.9 °F 39.2 °F 81% 29.56 in 10.0 mi SSW 18.4 mph 23.0 mph N/A   Overcast
5:15 PM 44.6 °F 37.2 °F 37.4 °F 76% 29.58 in 10.0 mi WSW 17.3 mph 23.0 mph N/A   Overcast
5:35 PM 37.4 °F 31.4 °F 32.0 °F 81% 29.58 in 5.0 mi SW 8.1 mph 25.3 mph 0.01 in   Overcast
5:55 PM 39.2 °F 33.6 °F 35.6 °F 87% 29.58 in 10.0 mi South 8.1 mph - 0.01 in   Mostly Cloudy
6:15 PM 42.8 °F 35.4 °F 37.4 °F 81% 29.58 in 10.0 mi SSW 15.0 mph 21.9 mph N/A   Overcast
6:35 PM 42.8 °F 33.8 °F 35.6 °F 76% 29.59 in 10.0 mi SW 21.9 mph 28.8 mph N/A   Overcast
6:55 PM 42.8 °F 34.0 °F 33.8 °F 70% 29.61 in 10.0 mi SW 20.7 mph - N/A   Mostly Cloudy
7:15 PM 41.0 °F 32.8 °F 32.0 °F 70% 29.62 in 10.0 mi SW 16.1 mph - N/A   Mostly Cloudy
7:35 PM 41.0 °F 31.6 °F 30.2 °F 65% 29.63 in 10.0 mi WSW 20.7 mph 29.9 mph N/A   Scattered Clouds
7:55 PM 41.0 °F 31.6 °F 28.4 °F 61% 29.64 in 10.0 mi WSW 20.7 mph 27.6 mph N/A   Partly Cloudy
8:15 PM 39.2 °F 30.5 °F 28.4 °F 65% 29.65 in 10.0 mi SW 16.1 mph - N/A   Partly Cloudy
8:35 PM 41.0 °F 32.2 °F 30.2 °F 65% 29.67 in 10.0 mi WSW 18.4 mph - N/A   Mostly Cloudy
8:55 PM 41.0 °F 31.1 °F 30.2 °F 65% 29.68 in 10.0 mi SW 23.0 mph 26.5 mph N/A   Overcast
9:15 PM 41.0 °F 30.9 °F 30.2 °F 65% 29.69 in 10.0 mi SW 24.2 mph 33.4 mph N/A   Overcast
9:35 PM 41.0 °F 30.9 °F 30.2 °F 65% 29.69 in 10.0 mi SW 24.2 mph 35.7 mph N/A   Mostly Cloudy
9:55 PM 39.2 °F 28.0 °F 28.4 °F 65% 29.70 in 10.0 mi WSW 26.5 mph 32.2 mph N/A   Scattered Clouds
10:35 PM 39.2 °F 28.3 °F 26.6 °F 61% 29.71 in 10.0 mi WSW 25.3 mph 38.0 mph N/A   Clear
11:15 PM 39.2 °F 27.6 °F 28.4 °F 65% 29.71 in 10.0 mi SW 28.8 mph 39.1 mph N/A   Mostly Cloudy
11:35 PM 37.4 °F 26.4 °F 26.6 °F 65% 29.74 in 10.0 mi WSW 23.0 mph 34.5 mph N/A   Scattered Clouds
11:55 PM 37.4 °F 26.6 °F 26.6 °F 65% 29.77 in 10.0 mi SW 21.9 mph 28.8 mph N/A   Mostly Cloudy